Sitka, AK

5:17 AM AKDT on April 25, 2017 (GMT -0800)
Sitka Rocky Gutierrez

Weather History for PASI - May, 2013

Change the Weather History Date:

Sunday, May 12, 2013

  Actual Average Record
Temperature  
Mean Temperature 48 °F -  
Max Temperature 52 °F 53 °F 73 °F (2016)
Min Temperature 46 °F 41 °F 31 °F (1964)
Degree Days  
Heating Degree Days 16    
Moisture  
Dew Point 47 °F    
Average Humidity 94    
Maximum Humidity 100    
Minimum Humidity 82    
Precipitation  
Precipitation 0.12 in - - ()
Sea Level Pressure  
Sea Level Pressure 29.59 in    
Wind  
Wind Speed 4 mph (SW)    
Max Wind Speed 16 mph    
Max Gust Speed 23 mph    
Visibility 10 miles    
Events Rain    
Averages and records for this station are not official NWS values.
T = Trace of Precipitation, MM = Missing Value Source: NWS Daily Summary

Daily Weather History Graph

Daily Weather History Graph

Search for Another Location

Airport or City:

Trip Planner

Search our weather history database for the weather conditions in past years. The results will help you decide how hot, cold, wet, or windy it might be!

Date:

Astronomy

May. 12, 2013 Rise Set
Actual Time 4:47 AM AKDT 9:09 PM AKDT
Civil Twilight 3:56 AM AKDT 10:00 PM AKDT
Nautical Twilight 2:35 AM AKDT 11:24 PM AKDT
Astronomical Twilight Sun does not set Sun does not set
Moon 6:42 AM AKDT (5/12) 11:46 PM AKDT (5/12)
Length of Visible Light 18h 04m
Length of Day
16h 21m
Waxing Crescent, 7% of the Moon is Illuminated
May 12
Waxing Crescent
May 17
First Quarter
May 24
Full
May 31
Last Quarter
Jun 8
New

Hourly Weather History & Observations

Time (AKDT) Temp. Dew Point Humidity Pressure Visibility Wind Dir Wind Speed Gust Speed Precip Events Conditions
12:53 AM 48.0 °F 46.9 °F 96% 29.63 in 10.0 mi Calm Calm - N/A   Overcast
1:53 AM 48.0 °F 46.0 °F 93% 29.61 in 10.0 mi Calm Calm - N/A   Overcast
2:53 AM 48.0 °F 46.9 °F 96% 29.59 in 10.0 mi Calm Calm - N/A   Overcast
3:53 AM 46.9 °F 46.0 °F 97% 29.57 in 10.0 mi Calm Calm - N/A   Partly Cloudy
4:53 AM 46.0 °F 45.0 °F 96% 29.56 in 10.0 mi Calm Calm - N/A   Overcast
5:53 AM 46.9 °F 46.0 °F 97% 29.57 in 10.0 mi Calm Calm - N/A   Overcast
6:53 AM 48.0 °F 46.0 °F 93% 29.56 in 10.0 mi Calm Calm - N/A   Overcast
7:53 AM 48.9 °F 45.0 °F 86% 29.57 in 10.0 mi WNW 4.6 mph - N/A   Overcast
8:53 AM 50.0 °F 46.9 °F 89% 29.58 in 10.0 mi North 3.5 mph - 0.01 in   Overcast
9:53 AM 51.1 °F 46.9 °F 86% 29.59 in 10.0 mi Calm Calm - N/A   Overcast
10:53 AM 51.1 °F 46.9 °F 86% 29.60 in 10.0 mi NW 5.8 mph - N/A   Overcast
11:12 AM 50.0 °F 46.4 °F 87% 29.61 in 10.0 mi NW 4.6 mph - N/A   Overcast
11:28 AM 50.0 °F 48.2 °F 94% 29.61 in 10.0 mi SSW 12.7 mph 19.6 mph N/A   Overcast
11:37 AM 50.0 °F 48.2 °F 94% 29.60 in 10.0 mi SSW 16.1 mph 21.9 mph N/A   Overcast
11:53 AM 51.1 °F 48.0 °F 89% 29.60 in 10.0 mi SSW 12.7 mph 17.3 mph N/A   Overcast
12:53 PM 50.0 °F 46.9 °F 89% 29.62 in 10.0 mi SSW 16.1 mph 23.0 mph N/A   Overcast
1:53 PM 50.0 °F 46.9 °F 89% 29.61 in 10.0 mi SW 10.4 mph - N/A   Overcast
2:06 PM 51.8 °F 46.4 °F 82% 29.61 in 10.0 mi SSW 11.5 mph - N/A   Overcast
2:53 PM 50.0 °F 46.9 °F 89% 29.61 in 7.0 mi SSW 13.8 mph 19.6 mph 0.00 in Rain Light Rain
3:53 PM 50.0 °F 48.0 °F 93% 29.60 in 8.0 mi SSW 12.7 mph - 0.01 in Rain Light Rain
4:53 PM 50.0 °F 48.9 °F 96% 29.59 in 9.0 mi SW 8.1 mph - 0.03 in Rain Light Rain
5:50 PM 48.2 °F 48.2 °F 100% 29.59 in 8.0 mi SSW 13.8 mph - 0.02 in Rain Light Rain
5:53 PM 48.9 °F 48.0 °F 97% 29.59 in 7.0 mi SSW 13.8 mph - 0.02 in Rain Light Rain
6:33 PM 48.2 °F 48.2 °F 100% 29.59 in 10.0 mi Variable 3.5 mph - 0.03 in Rain Light Rain
6:53 PM 48.9 °F 48.0 °F 97% 29.58 in 8.0 mi SSW 9.2 mph - 0.04 in Rain Light Rain
7:53 PM 48.9 °F 48.0 °F 97% 29.58 in 10.0 mi South 3.5 mph - 0.01 in   Overcast
8:53 PM 50.0 °F 48.9 °F 96% 29.58 in 10.0 mi SE 3.5 mph - N/A   Overcast
9:53 PM 50.0 °F 48.9 °F 96% 29.58 in 10.0 mi Calm Calm - N/A   Overcast
10:53 PM 48.9 °F 48.0 °F 97% 29.58 in 10.0 mi WSW 3.5 mph - N/A   Overcast
11:32 PM 48.2 °F 48.2 °F 100% 29.58 in 9.0 mi WNW 3.5 mph - 0.00 in Rain Light Rain
11:45 PM 48.2 °F 48.2 °F 100% 29.58 in 10.0 mi North 3.5 mph - 0.00 in Rain Light Rain
11:53 PM 48.9 °F 48.0 °F 97% 29.58 in 10.0 mi NNW 3.5 mph - 0.00 in Rain Light Rain